ENTRYSAT

Last updated on Wed Jul 07 2021 18:13:09 GMT+0000 (Coordinated Universal Time)

1 44429U 98067QP 21188.41457511 .00181134 23425-4 53373-3 0 9993 2 44429 51.6227 174.1011 0005298 39.2301 320.9089 15.92263020114934

Satellite not in orbit

ENTRYSAT